Regional Weather Roundup
Issued by NWS

Home | Current Version | Previous Version | Graphics & Text | Print | Product List | Glossary Off
Versions: 1 2 3 4 5 6 7 8 9 10 11 12 13 14 15 16 17 18 19 20 21 22 23 24 25 26 27 28 29 30 31 32 33 34 35 36 37 38 39 40 41 42 43 44 45 46 47 48 49 50

000
ASUS43 KFSD 060010
RWRSD

WEATHER ROUNDUP FOR SOUTH DAKOTA
NATIONAL WEATHER SERVICE SIOUX FALLS SD
600 PM CST THU MAR 05 2015

NOTE: "FAIR" INDICATES FEW OR NO CLOUDS BELOW 12,000 FEET WITH NO
SIGNIFICANT WEATHER AND/OR OBSTRUCTIONS TO VISIBILITY.


SDZ001>005-009-010-012>017-060100-
NORTHWEST AND NORTH CENTRAL SOUTH DAKOTA

CITY           SKY/WX    TMP DP  RH WIND       PRES   REMARKS
BUFFALO          N/A     44  11  26 NW17      30.02R
FAITH            N/A     43  10  26 NW18      30.07R
MOBRIDGE       CLEAR     34  14  43 S13       30.05S WCI  25
$$

SDZ012>016-024>037-041>051-057-063-072>074-060100-
SOUTHWEST AND SOUTH CENTRAL SOUTH DAKOTA

CITY           SKY/WX    TMP DP  RH WIND       PRES   REMARKS
RAPID CTY ARPT CLEAR     43  17  35 N16       30.11R
PIERRE         CLEAR     34  19  54 S8        30.11F WCI  27
CUSTER         CLEAR     35  11  36 W15G21    30.10R WCI  25
ELLSWORTH AFB  CLEAR     43  19  38 N12       30.10R
PHILIP         CLOUDY    46  18  32 W13       30.09R
PINE RIDGE     CLEAR     40  21  46 W14G21    30.14R
SPEARFISH      FAIR      39  18  41 NW12      30.12R
WINNER         MOCLDY    42  15  33 W9        30.14R
$$

SDZ004>011-016>023-039-040-060100-
NORTHEAST SOUTH DAKOTA

CITY           SKY/WX    TMP DP  RH WIND       PRES   REMARKS
ABERDEEN       CLEAR     26  13  57 S9        30.18S WCI  17
WATERTOWN      CLEAR     21   9  59 S10       30.19F WCI  10
SISSETON         N/A     21  10  62 S13       30.21F WCI   9
$$

SDZ017-020-022-023-036>040-048>070-060100-
SOUTHEAST SOUTH DAKOTA

CITY           SKY/WX    TMP DP  RH WIND       PRES   REMARKS
SIOUX FALLS    PTCLDY    28   6  39 S13       30.26F WCI  17
HURON          MOCLDY    33   9  36 S7        30.18F WCI  27
CHAMBERLAIN    CLEAR     36  14  41 CALM      30.15S
MITCHELL       PTCLDY    35   5  28 S10       30.21F WCI  27
YANKTON        CLEAR     36   3  25 S13       30.28S
$$

ABBREVIATIONS USED IN REMARKS
   TC - TEMPERATURE IN CELSIUS
  WCI - WIND CHILL INDEX
   HX - HEAT INDEX
  VSB - VISIBILITY




USA.gov is the U.S. government's official web portal to all federal, state and local government web resources and services.